Time,TemperatureF,DewpointF,PressureIn,WindDirection,WindDirectionDegrees,WindSpeedMPH,WindSpeedGustMPH,Humidity,HourlyPrecipIn,Conditions,Clouds,dailyrainin,SolarRadiationWatts/m^2,SoftwareType,DateUTC
2013-06-12 00:02:00,70.0,15.0,-100.00,North,10,5.0,7.0,12,0.00,,,0.00,1.000000,,2013-06-12 06:02:00,
2013-06-12 00:12:00,70.0,15.0,-100.00,North,10,5.0,7.0,12,0.00,,,0.00,1.000000,,2013-06-12 06:12:00,
2013-06-12 00:42:00,68.0,15.0,-100.00,NNE,16,5.0,7.0,13,0.00,,,0.00,1.000000,,2013-06-12 06:42:00,
2013-06-12 00:52:00,68.0,15.0,-100.00,NNE,16,5.0,7.0,13,0.00,,,0.00,1.000000,,2013-06-12 06:52:00,
2013-06-12 01:02:00,68.0,15.0,-100.00,NNE,16,5.0,7.0,13,0.00,,,-99.99,1.000000,,2013-06-12 07:02:00,
2013-06-12 01:12:00,68.0,15.0,-100.00,NNE,16,5.0,7.0,13,0.00,,,-99.99,1.000000,,2013-06-12 07:12:00,
2013-06-12 01:43:00,66.0,14.0,-100.00,NE,41,6.0,7.0,13,-99.99,,,0.00,1.000000,,2013-06-12 07:43:00,
2013-06-12 01:53:00,66.0,14.0,-100.00,NE,41,6.0,7.0,13,-99.99,,,0.00,1.000000,,2013-06-12 07:53:00,
2013-06-12 02:02:00,66.0,14.0,-100.00,NE,41,6.0,7.0,13,-99.99,,,0.00,1.000000,,2013-06-12 08:02:00,
2013-06-12 02:12:00,66.0,14.0,-100.00,NE,41,6.0,7.0,13,-99.99,,,0.00,1.000000,,2013-06-12 08:12:00,
2013-06-12 02:43:00,68.0,14.0,-100.00,ENE,64,7.0,8.0,12,-99.99,,,0.00,1.000000,,2013-06-12 08:43:00,
2013-06-12 02:53:00,68.0,14.0,-100.00,ENE,64,7.0,8.0,12,-99.99,,,0.00,1.000000,,2013-06-12 08:53:00,
2013-06-12 03:01:00,68.0,14.0,-100.00,ENE,64,7.0,8.0,12,-99.99,,,0.00,1.000000,,2013-06-12 09:01:00,
2013-06-12 03:43:00,67.0,15.0,-100.00,East,83,7.0,9.0,13,-99.99,,,0.00,1.000000,,2013-06-12 09:43:00,
2013-06-12 03:53:00,67.0,15.0,-100.00,East,83,7.0,9.0,13,-99.99,,,0.00,1.000000,,2013-06-12 09:53:00,
2013-06-12 04:01:00,67.0,15.0,-100.00,East,83,7.0,9.0,13,-99.99,,,0.00,1.000000,,2013-06-12 10:01:00,
2013-06-12 05:43:00,60.0,14.0,-100.00,SE,126,6.0,8.0,16,-99.99,,,0.00,1.000000,,2013-06-12 11:43:00,
2013-06-12 05:53:00,60.0,14.0,-100.00,SE,126,6.0,8.0,16,-99.99,,,0.00,1.000000,,2013-06-12 11:53:00,
2013-06-12 06:43:00,61.0,14.0,-100.00,ESE,109,5.0,6.0,16,-99.99,,,0.00,7.000000,,2013-06-12 12:43:00,
2013-06-12 06:53:00,61.0,14.0,-100.00,ESE,109,5.0,6.0,16,-99.99,,,0.00,7.000000,,2013-06-12 12:53:00,
2013-06-12 07:01:00,61.0,14.0,-100.00,ESE,109,5.0,6.0,16,-99.99,,,0.00,7.000000,,2013-06-12 13:01:00,
2013-06-12 07:43:00,65.0,16.0,-100.00,ESE,118,4.0,6.0,15,-99.99,,,0.00,65.000000,,2013-06-12 13:43:00,
2013-06-12 07:53:00,65.0,16.0,-100.00,ESE,118,4.0,6.0,15,-99.99,,,0.00,65.000000,,2013-06-12 13:53:00,
2013-06-12 08:02:00,65.0,16.0,-100.00,ESE,118,4.0,6.0,15,-99.99,,,0.00,65.000000,,2013-06-12 14:02:00,
2013-06-12 09:52:00,79.0,15.0,-100.00,South,174,8.0,12.0,9,-99.99,,,0.00,427.000000,,2013-06-12 15:52:00,
2013-06-12 10:01:00,79.0,15.0,-100.00,South,174,8.0,12.0,9,-99.99,,,0.00,427.000000,,2013-06-12 16:01:00,
2013-06-12 10:11:00,79.0,15.0,-100.00,South,174,8.0,12.0,9,-99.99,,,0.00,427.000000,,2013-06-12 16:11:00,
2013-06-12 10:43:00,84.0,13.0,-100.00,SSW,212,10.0,18.0,7,0.00,,,0.00,543.000000,,2013-06-12 16:43:00,
2013-06-12 10:52:00,84.0,13.0,-100.00,SSW,212,10.0,18.0,7,0.00,,,0.00,543.000000,,2013-06-12 16:52:00,
2013-06-12 11:01:00,84.0,13.0,-100.00,SSW,212,10.0,18.0,7,0.00,,,0.00,543.000000,,2013-06-12 17:01:00,
2013-06-12 11:11:00,84.0,13.0,-100.00,SSW,212,10.0,18.0,7,0.00,,,0.00,543.000000,,2013-06-12 17:11:00,
2013-06-12 11:42:00,83.0,16.0,-100.00,SW,226,8.0,19.0,8,0.00,,,0.00,796.000000,,2013-06-12 17:42:00,
2013-06-12 11:52:00,83.0,16.0,-100.00,SW,226,8.0,19.0,8,0.00,,,0.00,796.000000,,2013-06-12 17:52:00,
2013-06-12 12:02:00,83.0,16.0,-100.00,SW,226,8.0,19.0,8,0.00,,,0.00,796.000000,,2013-06-12 18:02:00,
2013-06-12 12:12:00,83.0,16.0,-100.00,SW,226,8.0,19.0,8,0.00,,,0.00,796.000000,,2013-06-12 18:12:00,
2013-06-12 12:43:00,85.0,14.0,-100.00,WSW,238,11.0,23.0,7,0.00,,,0.00,827.000000,,2013-06-12 18:43:00,
2013-06-12 12:53:00,85.0,14.0,-100.00,WSW,238,11.0,23.0,7,0.00,,,0.00,827.000000,,2013-06-12 18:53:00,
2013-06-12 13:01:00,85.0,14.0,-100.00,WSW,238,11.0,23.0,7,0.00,,,0.00,827.000000,,2013-06-12 19:01:00,
2013-06-12 13:11:00,85.0,14.0,-100.00,WSW,238,11.0,23.0,7,0.00,,,0.00,827.000000,,2013-06-12 19:11:00,
2013-06-12 13:43:00,87.0,12.0,-100.00,WSW,247,11.0,25.0,6,0.00,,,0.00,1098.000000,,2013-06-12 19:43:00,
2013-06-12 13:52:00,87.0,12.0,-100.00,WSW,247,11.0,25.0,6,0.00,,,0.00,1098.000000,,2013-06-12 19:52:00,
2013-06-12 14:01:00,87.0,12.0,-100.00,WSW,247,11.0,25.0,6,0.00,,,0.00,1098.000000,,2013-06-12 20:01:00,
2013-06-12 14:11:00,87.0,12.0,-100.00,WSW,247,11.0,25.0,6,0.00,,,0.00,1098.000000,,2013-06-12 20:11:00,
2013-06-12 14:43:00,88.0,9.0,-100.00,WSW,251,13.0,21.0,5,0.00,,,0.00,956.000000,,2013-06-12 20:43:00,
2013-06-12 14:54:00,88.0,9.0,-100.00,WSW,251,13.0,21.0,5,0.00,,,0.00,956.000000,,2013-06-12 20:54:00,
2013-06-12 15:01:00,88.0,9.0,-100.00,WSW,251,13.0,21.0,5,0.00,,,0.00,956.000000,,2013-06-12 21:01:00,
2013-06-12 15:11:00,88.0,9.0,-100.00,WSW,251,13.0,21.0,5,0.00,,,0.00,956.000000,,2013-06-12 21:11:00,
2013-06-12 15:43:00,89.0,9.0,-100.00,WNW,284,10.0,27.0,5,0.00,,,0.00,1182.000000,,2013-06-12 21:43:00,
2013-06-12 15:53:00,89.0,9.0,-100.00,WNW,284,10.0,27.0,5,0.00,,,0.00,1182.000000,,2013-06-12 21:53:00,
2013-06-12 16:01:00,89.0,9.0,-100.00,WNW,284,10.0,27.0,5,0.00,,,0.00,1182.000000,,2013-06-12 22:01:00,
2013-06-12 16:11:00,89.0,9.0,-100.00,WNW,284,10.0,27.0,5,0.00,,,0.00,1182.000000,,2013-06-12 22:11:00,
2013-06-12 16:43:00,89.0,9.0,-100.00,West,273,10.0,26.0,5,0.00,,,0.00,1004.000000,,2013-06-12 22:43:00,
2013-06-12 16:52:00,89.0,9.0,-100.00,West,273,10.0,26.0,5,0.00,,,0.00,1004.000000,,2013-06-12 22:52:00,
2013-06-12 17:01:00,89.0,9.0,-100.00,West,273,10.0,26.0,5,0.00,,,0.00,1004.000000,,2013-06-12 23:01:00,
2013-06-12 17:12:00,89.0,9.0,-100.00,West,273,10.0,26.0,5,0.00,,,0.00,1004.000000,,2013-06-12 23:12:00,
2013-06-12 17:42:00,89.0,9.0,-100.00,WNW,295,12.0,21.0,5,0.00,,,0.00,698.000000,,2013-06-12 23:42:00,
2013-06-12 17:53:00,89.0,9.0,-100.00,WNW,295,12.0,21.0,5,0.00,,,0.00,698.000000,,2013-06-12 23:53:00,
2013-06-12 18:01:00,89.0,9.0,-100.00,WNW,295,12.0,21.0,5,0.00,,,0.00,698.000000,,2013-06-13 00:01:00,
2013-06-12 18:11:00,89.0,9.0,-100.00,WNW,295,12.0,21.0,5,0.00,,,0.00,698.000000,,2013-06-13 00:11:00,
2013-06-12 18:43:00,87.0,8.0,-100.00,NW,322,10.0,17.0,5,0.00,,,-99.99,545.000000,,2013-06-13 00:43:00,
2013-06-12 18:52:00,87.0,8.0,-100.00,NW,322,10.0,17.0,5,0.00,,,-99.99,545.000000,,2013-06-13 00:52:00,
2013-06-12 19:01:00,87.0,8.0,-100.00,NW,322,10.0,17.0,5,0.00,,,-99.99,545.000000,,2013-06-13 01:01:00,
2013-06-12 19:12:00,87.0,8.0,-100.00,NW,322,10.0,17.0,5,0.00,,,-99.99,545.000000,,2013-06-13 01:12:00,
2013-06-12 19:43:00,86.0,7.0,-100.00,WNW,299,8.0,15.0,5,0.00,,,0.00,391.000000,,2013-06-13 01:43:00,
2013-06-12 19:53:00,86.0,7.0,-100.00,WNW,299,8.0,15.0,5,0.00,,,0.00,391.000000,,2013-06-13 01:53:00,
2013-06-12 20:01:00,86.0,7.0,-100.00,WNW,299,8.0,15.0,5,0.00,,,0.00,391.000000,,2013-06-13 02:01:00,
2013-06-12 20:12:00,86.0,7.0,-100.00,WNW,299,8.0,15.0,5,0.00,,,0.00,391.000000,,2013-06-13 02:12:00,
2013-06-12 20:43:00,82.0,12.0,-100.00,NNW,348,4.0,9.0,7,0.00,,,0.00,102.000000,,2013-06-13 02:43:00,
2013-06-12 20:52:00,82.0,12.0,-100.00,NNW,348,4.0,9.0,7,0.00,,,0.00,102.000000,,2013-06-13 02:52:00,
2013-06-12 21:02:00,82.0,12.0,-100.00,NNW,348,4.0,9.0,7,0.00,,,0.00,102.000000,,2013-06-13 03:02:00,
2013-06-12 21:12:00,82.0,12.0,-100.00,NNW,348,4.0,9.0,7,0.00,,,0.00,102.000000,,2013-06-13 03:12:00,
2013-06-12 21:43:00,73.0,11.0,-100.00,NNE,28,5.0,6.0,9,0.00,,,0.00,7.000000,,2013-06-13 03:43:00,
2013-06-12 21:52:00,73.0,11.0,-100.00,NNE,28,5.0,6.0,9,0.00,,,0.00,7.000000,,2013-06-13 03:52:00,
2013-06-12 22:01:00,73.0,11.0,-100.00,NNE,28,5.0,6.0,9,0.00,,,0.00,7.000000,,2013-06-13 04:01:00,
2013-06-12 22:11:00,73.0,11.0,-100.00,NNE,28,5.0,6.0,9,0.00,,,0.00,7.000000,,2013-06-13 04:11:00,
2013-06-12 22:43:00,71.0,12.0,-100.00,NE,34,6.0,7.0,10,0.00,,,0.00,1.000000,,2013-06-13 04:43:00,
2013-06-12 22:53:00,71.0,12.0,-100.00,NE,34,6.0,7.0,10,0.00,,,0.00,1.000000,,2013-06-13 04:53:00,
2013-06-12 23:02:00,71.0,12.0,-100.00,NE,34,6.0,7.0,10,0.00,,,0.00,1.000000,,2013-06-13 05:02:00,
2013-06-12 23:12:00,71.0,12.0,-100.00,NE,34,6.0,7.0,10,0.00,,,0.00,1.000000,,2013-06-13 05:12:00,
2013-06-12 23:43:00,71.0,12.0,-100.00,ENE,57,7.0,8.0,10,0.00,,,0.00,1.000000,,2013-06-13 05:43:00,
2013-06-12 23:53:00,71.0,12.0,-100.00,ENE,57,7.0,8.0,10,0.00,,,0.00,1.000000,,2013-06-13 05:53:00,